Dewpoint
3 5 4 3 3 1 2 -1 -4 -1 -2 -3 -1 -2 -3 -1 2 8 11 14 13 15 15 13 15 13 12 13 13 13 13 14 14 13 13 12 11 7 -3 2 5 4 10 13 13 8 1 -1 5
8 6 3 2 3 4 1 -2 -1 -2 -1 -1 -1 -1 -1 -0 7 13 14 14 13 15 16 15 13 11 13 14 13 13 14 13 12 6 8 10 6 -3 11 11 9 11 14 13 12 8 2 -4 -2
5 6 3 2 3 3 1 -2 -4 -2 -2 -2 -1 -1 0 4 9 12 14 13 14 15 15 15 11 12 14 14 14 14 14 14 13 8 4 4 -5 7 13 13 13 13 14 13 11 6 -4 -8 -7
7 4 3 4 3 1 -1 -3 -5 -2 -2 -2 -2 -1 2 9 10 13 14 14 14 14 15 14 12 12 14 15 14 14 13 13 13 9 2 -5 -5 10 12 13 13 14 12 12 10 1 -6 -3 -0
7 4 5 5 3 -0 -2 -3 -3 -3 -2 -2 -3 -2 2 12 13 14 14 13 14 14 15 13 13 13 14 14 14 14 13 13 13 4 -4 -9 -6 4 10 12 13 13 13 11 4 -4 -3 1 4
6 5 6 6 4 1 -2 -2 -2 -2 -3 -4 -3 -2 5 12 14 14 14 14 14 14 15 14 12 13 14 14 14 14 13 13 13 8 -4 -9 -9 -8 -2 9 10 12 10 5 1 -3 2 5 6
5 6 7 5 3 2 -1 -2 -2 -3 -3 -4 -4 -2 5 12 15 14 14 14 14 14 14 15 13 14 14 14 14 14 12 13 12 7 -2 -7 -9 -9 -6 1 8 8 6 3 -3 2 5 6 6
5 5 6 4 3 2 -1 -1 -2 -2 -3 -3 -4 -2 1 9 14 9 13 15 15 14 14 13 14 13 14 14 14 12 9 8 8 7 -1 -6 -5 -7 -8 -0 3 4 1 -3 1 4 6 6 5
4 6 6 4 3 1 -1 -0 -1 -2 -4 -4 -5 -1 8 9 8 9 10 11 13 14 14 13 13 14 14 13 10 6 4 4 13 9 -1 -5 -3 -3 -4 -5 -5 -5 -3 1 6 5 6 5 4
3 6 4 1 0 1 -0 -1 -3 -2 -3 -4 -2 2 10 10 2 8 12 13 12 14 14 14 13 13 13 12 12 4 5 9 14 11 3 -1 10 6 6 2 -1 -1 7 8 6 7 6 5 5
1 1 0 -1 0 1 -0 -1 -3 -2 -3 -4 -3 -1 7 11 10 13 14 14 13 12 14 14 14 13 13 12 12 11 11 12 13 13 11 10 11 11 6 2 -0 1 4 8 7 9 6 5 5
2 -1 -3 -1 1 1 -1 -2 -3 -2 -3 -3 -2 1 1 8 11 12 13 14 14 14 14 11 14 14 13 12 12 11 12 13 12 12 11 11 11 12 11 10 5 5 11 11 10 10 9 6 5
2 -1 -1 0 3 2 -1 -2 -2 -2 -1 1 1 1 1 1 5 11 12 13 14 14 14 13 12 14 14 13 12 11 12 13 13 12 11 10 11 11 12 11 11 10 11 11 11 11 9 7 5
1 1 0 0 2 2 2 -0 0 -0 -0 -0 -0 -0 -1 -1 1 3 9 12 13 13 14 14 12 11 14 14 13 13 13 13 13 13 12 10 11 11 11 12 12 11 10 11 11 11 9 7 5
2 1 1 -0 0 1 2 1 2 1 -1 -1 -2 -1 -2 -2 -2 0 2 5 9 11 12 14 13 10 11 14 12 13 14 13 13 14 13 12 9 10 11 11 11 11 11 11 10 10 9 6 4
2 2 4 -0 1 0 1 1 -2 -1 -1 -2 -3 -3 -4 -4 -3 -3 -0 2 3 4 5 9 12 14 14 14 13 11 14 14 14 13 13 13 12 10 10 10 11 11 11 12 11 10 9 6 5
3 2 2 -1 -2 0 2 -2 -4 -2 -2 -2 -3 -3 -3 -3 -3 -3 -4 -1 0 2 3 3 4 9 13 14 14 11 11 12 14 14 13 13 13 13 12 11 11 11 11 11 11 10 9 6 5
2 1 -2 -2 1 -0 0 0 -3 -2 -2 -3 -3 -3 -3 -3 -3 -3 -3 -3 -1 -0 0 1 1 2 6 10 12 13 9 9 11 14 13 13 13 12 12 12 11 11 11 11 11 10 9 7 6
-2 -1 -3 -3 0 1 -0 -1 -2 -3 -2 -2 -2 -3 -4 -4 -4 -2 -1 -1 -1 -1 -0 0 1 1 2 5 8 12 10 3 5 10 12 13 12 13 13 12 12 12 11 11 11 11 10 8 6
0 -1 -1 0 -0 0 -2 0 -1 -2 -2 -3 -2 -2 -2 -3 -3 -3 -3 -1 -2 -3 -3 -2 -0 1 1 1 3 7 10 3 -0 3 9 12 12 11 11 12 11 11 11 11 11 11 10 8 7
-0 -0 -2 0 1 0 1 1 -1 -3 -3 -3 -3 -4 -5 -4 -3 -1 1 1 2 1 -4 -5 -4 -2 -0 0 1 3 8 11 11 7 4 8 11 12 13 11 11 11 12 11 11 11 10 8 7
1 -0 0 3 3 -0 -0 -4 1 -2 -3 -3 -3 -2 -2 -1 0 1 2 2 3 1 -1 -1 -3 -4 -5 -4 -2 1 4 8 11 11 12 10 7 6 7 9 12 12 12 12 11 11 11 10 8
3 2 3 3 3 3 2 2 -1 -4 -2 -3 -2 -1 1 1 2 2 3 3 3 -0 -1 -1 -1 2 -1 -3 -4 -4 -2 -0 6 9 11 10 11 10 6 6 10 11 11 11 12 11 11 10 9
1 2 2 3 3 7 3 1 -1 -4 -4 -3 -3 -1 0 1 3 3 4 4 4 3 1 -1 -1 -1 2 0 -1 -2 -3 -2 3 6 9 10 11 11 11 10 9 11 12 12 12 11 11 10 10
2 5 8 9 9 6 0 2 -2 -5 -6 -4 -3 -1 1 2 3 4 4 4 4 3 2 2 2 2 2 1 1 2 -0 -1 -2 4 7 9 10 10 9 9 8 9 10 12 12 12 11 10 10
5 5 6 6 6 4 -1 1 -4 -6 -6 -3 -1 0 1 3 4 4 4 4 3 3 3 3 1 1 3 3 4 4 4 2 2 2 2 7 9 9 10 11 9 6 6 10 11 11 11 11 10
6 8 -0 1 -2 0 -2 -4 -4 -6 -6 -4 -1 1 2 3 4 4 4 4 4 3 4 4 4 4 4 2 3 4 4 4 1 0 2 3 5 7 9 9 10 9 5 8 10 10 10 10 10
5 3 7 6 7 3 -1 -4 -5 -4 -4 -3 -1 -1 1 3 4 3 3 3 4 3 3 3 3 3 3 2 2 2 2 1 0 0 1 3 4 5 7 8 8 9 8 7 9 10 10 9 9
2 3 1 2 1 2 -4 -7 -7 -4 -4 -3 -4 -1 2 4 4 3 2 2 3 3 3 3 2 2 1 1 1 1 1 1 0 1 0 -1 -2 -1 -0 1 5 6 5 5 6 9 9 8 8
-0 1 0 4 4 1 2 -3 -8 -6 -5 -4 -4 -0 2 4 3 2 1 2 2 2 2 2 2 2 1 1 1 0 0 0 0 1 1 1 -0 -1 -1 1 4 5 7 8 8 8 8 7 7
Wind_Speed
9 5 5 5 6 6 11 5 1 5 5 3 2 6 3 9 6 2 3 5 12 16 17 17 16 16 14 13 12 10 10 7 6 7 5 3 1 2 3 6 7 9 10 11 8 5 6 5 2
7 7 6 7 7 10 10 9 7 4 5 3 3 5 5 4 5 4 4 7 15 16 15 15 15 16 15 13 11 9 8 5 5 1 4 3 2 5 9 9 10 12 9 12 5 4 6 4 5
11 10 12 5 11 13 10 7 7 5 3 1 3 3 3 5 5 4 4 13 17 15 14 15 16 17 15 11 9 9 7 5 4 2 5 5 7 13 11 8 8 10 14 8 1 4 5 6 7
8 9 11 10 14 16 15 6 5 8 3 2 1 4 5 5 2 4 9 16 16 15 13 13 16 17 17 13 11 9 7 6 6 1 7 7 10 14 12 10 9 11 10 5 1 4 5 7 8
15 13 10 14 19 15 12 8 8 7 4 3 3 7 5 5 7 9 11 15 14 14 13 13 17 16 16 13 11 9 7 6 7 2 8 7 9 12 12 12 12 10 8 3 0 2 5 7 7
16 19 10 17 18 18 12 12 10 8 4 1 4 3 8 7 8 9 11 13 12 13 12 13 17 16 14 13 12 10 8 7 7 3 7 7 8 7 9 12 11 10 7 4 2 5 5 5 5
20 13 18 21 17 17 17 16 12 12 11 6 2 8 11 8 6 9 11 10 11 12 12 12 14 14 15 14 12 10 9 9 7 6 4 8 8 8 8 10 12 10 8 5 6 6 5 3 3
21 12 22 21 17 18 15 14 11 16 13 3 3 5 8 6 4 6 14 11 10 11 12 12 12 15 15 14 14 11 10 10 9 5 4 7 9 8 9 11 11 9 8 7 7 5 3 2 2
12 14 17 23 23 18 12 11 15 8 12 7 7 3 3 4 3 7 9 12 15 11 12 13 12 12 12 12 12 13 12 11 11 7 7 7 7 9 10 11 10 10 9 8 7 5 3 2 2
15 14 23 18 18 9 14 13 14 9 13 13 10 4 1 5 5 8 9 9 12 13 12 12 13 12 13 12 11 12 11 14 13 9 9 9 8 8 8 10 11 11 10 9 8 7 5 3 2
18 19 19 16 4 3 12 16 15 13 12 15 14 12 4 5 6 8 10 9 11 14 17 15 12 13 13 12 11 9 11 10 10 12 12 11 11 13 13 12 13 13 12 11 11 10 8 5 7
13 26 16 11 5 3 11 14 13 14 7 6 5 5 4 5 6 9 11 11 11 12 14 16 16 13 14 12 12 11 12 12 13 15 15 13 13 12 11 10 12 12 11 10 13 8 8 11 9
17 11 16 6 7 9 15 16 13 14 9 5 6 6 5 5 6 8 11 12 13 13 13 15 16 16 13 15 13 14 14 15 14 15 16 16 15 14 13 13 12 12 13 12 12 12 12 12 11
13 17 14 14 11 9 11 14 12 13 12 12 11 12 10 10 10 8 11 13 14 13 13 14 16 16 15 17 16 14 14 14 15 16 17 20 18 17 16 15 15 14 15 15 16 15 14 12 12
7 17 8 17 15 7 10 15 18 18 12 13 14 14 14 15 15 16 14 13 13 14 14 14 14 16 18 17 20 18 16 15 16 16 18 20 23 21 19 17 18 17 17 16 16 16 16 15 15
8 12 14 14 13 9 12 13 17 25 21 23 21 20 20 20 19 19 18 15 14 13 13 15 16 16 17 18 24 21 19 18 18 17 17 20 21 22 22 22 21 19 19 19 18 18 19 18 18
13 12 18 12 18 11 14 8 13 12 10 14 16 17 17 18 17 19 20 20 19 19 18 18 17 18 19 19 23 25 23 25 19 18 19 20 21 22 24 24 23 21 22 24 22 22 21 21 21
19 20 18 18 10 15 17 15 7 7 10 15 15 15 15 16 16 15 15 16 17 18 18 19 19 19 20 21 21 29 27 27 27 22 25 24 24 26 27 27 24 23 25 28 26 25 25 24 22
11 18 13 10 7 9 14 13 14 13 17 17 18 18 18 18 15 13 11 13 14 15 17 17 18 20 20 22 23 29 34 31 30 32 29 26 29 27 28 30 27 26 29 30 28 27 26 27 23
9 14 12 4 9 7 10 11 9 13 17 19 16 15 16 14 12 9 8 7 11 14 16 17 18 18 20 24 26 26 30 36 37 36 36 35 33 35 34 34 33 32 32 32 31 31 30 30 29
11 12 13 6 9 8 4 12 13 3 4 4 5 9 8 6 5 3 1 2 2 4 11 17 22 25 26 28 27 28 25 26 28 33 38 41 43 41 36 39 37 36 36 36 36 36 36 35 36
12 6 5 7 10 7 7 3 11 10 7 6 6 6 6 6 5 3 1 2 3 3 2 3 6 11 18 26 30 29 25 27 28 30 28 31 35 37 38 39 38 38 37 40 40 39 41 38 39
6 10 7 4 5 3 7 5 8 12 11 9 7 7 6 4 2 2 2 3 5 5 5 6 6 6 9 12 18 24 31 34 29 28 28 28 28 33 37 37 37 40 40 42 41 40 42 44 39
13 13 7 3 1 4 9 7 10 11 13 10 8 7 4 2 1 2 3 4 5 8 9 10 10 9 10 11 13 15 20 23 23 26 27 26 26 29 31 32 32 37 40 40 42 44 45 45 44
7 13 5 4 4 3 3 5 4 9 10 10 8 7 4 0 2 4 5 6 7 9 10 11 11 12 12 12 12 12 15 16 19 22 25 26 27 30 33 34 33 33 33 37 38 42 44 46 46
8 10 4 6 6 6 4 6 1 10 9 9 4 4 2 1 2 4 5 6 7 9 11 13 13 14 12 11 11 11 10 12 13 14 18 22 25 26 24 28 32 32 31 30 34 40 39 43 46
3 4 5 2 3 2 6 4 6 7 9 8 4 4 3 2 3 4 6 7 8 9 10 9 9 8 7 9 8 9 9 11 13 14 15 17 17 20 22 24 25 30 29 28 30 35 38 38 40
6 9 2 2 4 5 6 5 4 13 16 9 7 2 2 3 4 5 7 7 6 7 7 7 7 7 7 7 7 7 8 10 11 11 12 13 14 16 17 18 26 25 28 26 26 30 34 36 37
4 4 3 3 2 3 2 3 6 16 16 11 2 1 2 3 3 5 6 6 5 5 5 5 5 6 7 8 8 9 10 11 12 13 15 17 17 19 21 22 24 23 25 26 23 23 26 28 31
6 6 9 3 4 1 3 2 1 14 13 5 4 2 2 2 3 4 5 5 4 5 4 4 5 7 9 11 12 12 13 14 14 14 15 17 19 21 21 22 21 21 21 19 18 19 20 23 25
Wind_Direction
226 260 265 264 245 230 248 218 290 203 200 155 85 240 319 345 350 22 129 151 153 152 162 170 162 164 162 166 172 173 174 183 228 238 240 228 281 11 68 116 116 137 144 141 134 70 49 46 101
222 242 235 253 245 230 227 210 209 191 43 266 236 216 242 129 46 73 87 153 150 151 160 166 161 163 162 174 184 177 182 210 239 218 166 164 137 116 102 112 113 124 136 151 120 44 26 50 95
211 222 235 228 233 242 238 151 202 120 143 181 185 247 98 70 64 72 127 143 149 155 156 180 163 164 165 169 181 180 180 172 159 85 131 139 136 135 125 127 137 139 148 145 149 21 36 85 101
208 218 242 238 229 227 253 98 278 166 157 152 319 191 128 67 90 100 131 144 147 153 159 190 170 171 167 177 181 189 192 185 166 173 134 136 141 152 159 145 143 150 159 175 315 17 82 98 100
209 226 229 218 237 240 236 94 204 183 123 179 320 129 104 76 90 115 129 145 152 156 180 200 172 176 173 177 184 194 193 194 201 192 131 141 151 165 171 171 164 170 184 197 276 96 114 113 109
211 228 228 230 220 232 210 224 194 216 189 216 231 222 98 111 103 121 136 148 159 163 172 181 179 185 193 184 185 192 192 192 188 232 133 147 158 173 185 185 187 179 192 203 180 140 134 125 120
227 214 226 243 231 224 222 210 212 224 214 210 237 245 120 107 121 131 134 152 159 167 166 178 184 184 178 185 193 196 205 205 217 215 166 161 162 165 165 184 186 188 195 197 170 160 152 139 127
223 246 231 241 238 231 202 221 229 232 241 191 212 225 144 103 157 174 153 152 165 172 170 178 184 190 191 202 199 201 217 225 232 197 198 189 170 165 167 174 187 197 198 183 178 170 175 171 158
222 228 231 231 237 238 228 207 217 232 242 212 212 282 87 111 192 196 182 178 168 181 181 181 185 189 194 200 229 214 215 212 202 214 217 202 197 179 169 183 184 191 188 188 191 191 204 214 193
209 221 219 231 242 241 236 221 216 209 217 214 214 189 146 165 224 209 198 194 188 178 191 189 189 195 193 196 225 214 219 204 205 231 214 196 192 194 183 206 194 199 193 196 206 214 216 212 231
214 228 229 238 315 154 226 223 237 213 218 221 207 192 193 186 225 205 211 212 210 203 189 190 202 198 201 201 196 195 199 207 204 214 218 194 201 220 209 218 210 207 210 210 216 221 224 204 199
234 223 242 200 185 183 235 226 208 231 220 222 198 148 208 211 220 221 220 212 211 213 216 211 191 206 206 206 201 201 198 206 204 212 209 208 209 219 215 215 219 209 224 195 237 227 221 227 227
214 222 214 198 175 204 223 228 225 219 207 173 196 238 236 235 235 233 229 225 223 219 219 224 216 199 212 211 215 208 210 212 213 212 210 209 216 218 219 219 222 214 211 203 232 220 226 229 232
207 230 213 206 190 185 205 223 217 233 229 227 236 244 245 246 245 243 233 231 231 228 224 229 228 224 212 220 215 219 220 221 220 220 221 215 214 219 220 222 222 226 220 219 218 219 220 224 228
254 210 203 213 200 201 206 239 225 237 230 232 234 242 244 246 245 244 241 239 233 235 234 235 240 235 222 229 238 223 226 226 228 229 229 226 226 220 222 221 225 228 229 227 226 223 220 218 225
191 208 213 217 202 212 188 243 218 227 236 243 243 247 249 247 247 247 246 245 242 237 231 229 234 237 235 226 242 237 227 232 233 229 234 233 233 232 227 226 222 223 229 230 225 225 225 222 231
208 200 208 194 209 189 200 245 209 184 212 238 237 239 244 249 250 251 250 249 248 247 246 244 240 234 239 238 251 252 244 239 234 237 234 232 232 231 230 228 228 221 224 228 227 228 228 231 233
197 215 200 211 187 223 222 237 240 234 235 241 244 243 244 250 254 257 253 250 249 248 247 245 244 244 239 241 243 259 257 249 248 237 238 241 236 241 237 233 229 224 223 230 225 227 229 230 234
260 206 223 210 140 206 225 239 230 228 242 244 250 251 249 250 256 257 262 266 260 252 249 246 245 241 239 237 238 248 260 260 253 248 241 247 250 242 242 246 235 228 225 233 230 229 226 232 223
258 197 185 130 148 219 218 237 239 239 245 251 261 264 260 259 259 261 269 268 258 255 251 250 249 246 243 241 237 245 259 261 260 256 249 240 245 253 250 245 246 241 239 229 230 229 229 234 229
195 201 195 219 177 224 272 248 232 211 230 235 242 245 236 221 198 185 150 64 52 265 252 249 246 242 238 240 241 237 245 254 259 260 255 251 250 244 244 251 247 243 235 237 239 232 237 233 236
181 203 167 170 186 214 201 229 174 170 173 177 162 149 143 138 137 134 88 29 16 341 334 307 288 270 258 252 249 242 237 244 245 248 254 265 264 260 250 247 250 246 240 235 241 242 241 237 238
117 150 165 192 220 301 193 255 131 167 184 174 154 142 138 122 101 43 3 345 344 323 319 304 297 301 285 271 258 252 252 250 245 250 254 255 256 265 263 258 246 252 246 248 242 238 239 247 237
132 126 115 94 250 238 225 232 172 182 189 165 161 152 143 103 52 3 345 343 331 318 304 298 291 288 289 286 282 274 262 254 252 253 254 252 255 256 259 264 259 249 249 245 247 246 243 249 248
173 174 157 188 196 229 136 210 319 126 140 167 158 156 160 140 339 345 340 338 330 323 314 304 293 285 281 278 278 283 281 277 267 252 254 258 259 259 262 265 264 263 257 250 247 249 249 248 249
182 214 235 204 189 173 166 219 88 149 161 141 170 179 204 229 337 341 337 334 330 332 326 314 303 293 290 285 279 279 283 283 278 276 263 256 258 260 263 271 272 267 263 256 252 246 248 245 254
168 205 7 316 53 222 175 183 168 162 187 171 169 193 200 263 321 325 326 322 324 330 335 334 338 339 320 296 292 286 286 280 279 277 276 268 262 266 265 261 268 274 271 264 257 252 249 245 253
182 148 155 213 199 217 177 209 166 176 170 173 169 197 213 251 305 315 318 307 309 324 339 357 1 358 346 340 326 309 296 288 287 290 285 277 273 270 268 268 266 255 266 265 258 258 256 251 250
156 189 202 271 308 292 197 134 34 170 167 159 92 25 241 264 291 309 313 313 303 318 341 356 354 358 352 350 342 328 315 304 295 291 286 284 286 282 275 266 262 271 264 265 264 262 262 260 260
317 238 213 242 185 63 334 64 233 165 174 175 294 273 254 271 303 318 316 318 305 304 333 331 334 346 345 344 338 329 323 316 307 297 292 287 286 285 288 283 273 269 273 269 263 261 262 262 262
Height
1518 1520 1522 1521 1520 1509 1504 1498 1497 1500 1503 1503 1506 1505 1502 1503 1500 1510 1513 1515 1517 1519 1518 1521 1524 1526 1529 1531 1533 1534 1536 1537 1537 1537 1538 1538 1539 1540 1539 1540 1541 1542 1544 1546 1546 1546 1546 1546 1546
1518 1521 1522 1516 1516 1509 1501 1493 1502 1498 1502 1506 1506 1507 1506 1502 1508 1512 1514 1513 1518 1521 1520 1522 1524 1527 1530 1532 1534 1535 1537 1538 1537 1537 1537 1539 1540 1540 1541 1542 1543 1544 1545 1546 1548 1548 1548 1547 1547
1517 1521 1519 1511 1508 1507 1498 1491 1496 1503 1506 1504 1504 1505 1504 1505 1511 1513 1513 1514 1519 1522 1523 1523 1525 1527 1530 1533 1535 1537 1538 1538 1538 1538 1539 1540 1541 1542 1544 1544 1545 1546 1547 1549 1550 1550 1549 1549 1549
1519 1521 1517 1507 1503 1498 1492 1494 1498 1503 1506 1506 1506 1504 1509 1512 1513 1514 1513 1516 1520 1524 1526 1524 1526 1528 1531 1533 1536 1538 1539 1540 1539 1538 1539 1540 1541 1543 1544 1545 1547 1548 1549 1551 1551 1551 1551 1551 1551
1518 1513 1507 1505 1501 1495 1494 1498 1504 1503 1505 1505 1507 1502 1506 1512 1512 1514 1515 1518 1522 1525 1525 1524 1526 1529 1532 1534 1537 1538 1540 1540 1540 1539 1540 1542 1542 1543 1545 1546 1548 1549 1550 1551 1552 1552 1552 1553 1553
1513 1506 1502 1499 1496 1494 1495 1501 1505 1505 1505 1506 1506 1505 1508 1513 1514 1515 1517 1520 1523 1525 1526 1524 1526 1529 1532 1535 1537 1538 1540 1540 1540 1540 1541 1543 1544 1545 1545 1547 1548 1549 1551 1551 1552 1553 1553 1554 1554
1506 1499 1497 1490 1488 1491 1493 1500 1504 1504 1504 1506 1507 1505 1508 1513 1513 1515 1518 1521 1523 1525 1527 1527 1527 1529 1532 1535 1537 1538 1540 1540 1541 1541 1542 1543 1545 1545 1546 1547 1549 1550 1551 1552 1553 1553 1555 1555 1555
1505 1498 1495 1489 1487 1489 1490 1500 1502 1505 1505 1506 1509 1506 1505 1514 1512 1513 1515 1521 1524 1525 1527 1529 1529 1529 1532 1534 1535 1537 1539 1540 1541 1541 1543 1544 1545 1546 1547 1548 1549 1550 1551 1552 1553 1554 1555 1556 1556
1504 1499 1492 1490 1488 1487 1490 1495 1502 1505 1505 1508 1508 1509 1512 1513 1511 1513 1514 1516 1519 1525 1527 1530 1531 1532 1535 1537 1535 1536 1538 1539 1540 1541 1543 1545 1546 1546 1547 1548 1549 1550 1551 1552 1553 1555 1556 1556 1556
1499 1491 1486 1488 1488 1491 1492 1499 1498 1505 1504 1505 1509 1510 1510 1512 1512 1513 1514 1516 1518 1524 1527 1529 1531 1532 1534 1535 1534 1535 1537 1538 1541 1541 1542 1545 1548 1547 1548 1547 1549 1550 1551 1552 1554 1555 1556 1556 1556
1493 1486 1488 1487 1494 1495 1497 1500 1499 1502 1500 1502 1505 1508 1511 1512 1511 1513 1514 1516 1517 1519 1523 1527 1529 1531 1533 1534 1535 1536 1538 1537 1540 1543 1543 1546 1549 1547 1547 1547 1548 1548 1549 1551 1553 1555 1556 1556 1558
1490 1489 1487 1490 1496 1499 1500 1500 1499 1501 1499 1501 1505 1507 1511 1511 1512 1513 1514 1516 1519 1518 1519 1522 1526 1529 1531 1533 1534 1537 1538 1539 1541 1542 1544 1546 1548 1549 1548 1549 1547 1548 1548 1552 1552 1553 1555 1555 1556
1489 1485 1490 1495 1498 1500 1502 1499 1499 1499 1502 1505 1507 1509 1509 1510 1511 1512 1513 1514 1517 1518 1519 1519 1521 1525 1529 1530 1533 1534 1535 1536 1537 1539 1541 1543 1545 1547 1548 1549 1549 1549 1551 1551 1552 1554 1554 1553 1554
1488 1489 1492 1495 1499 1500 1502 1500 1501 1501 1502 1504 1506 1507 1507 1508 1510 1511 1512 1513 1515 1517 1519 1518 1519 1521 1524 1526 1528 1531 1533 1534 1535 1536 1536 1538 1540 1543 1544 1547 1548 1548 1549 1550 1550 1550 1551 1551 1552
1489 1489 1492 1492 1495 1497 1501 1500 1497 1500 1500 1501 1502 1504 1505 1506 1508 1508 1510 1511 1513 1516 1518 1518 1517 1518 1519 1524 1523 1526 1530 1532 1533 1533 1534 1534 1535 1537 1541 1542 1544 1544 1546 1547 1548 1548 1547 1548 1547
1488 1490 1495 1489 1493 1495 1498 1493 1490 1495 1498 1497 1498 1500 1502 1503 1504 1506 1507 1509 1511 1512 1513 1515 1517 1516 1518 1520 1519 1521 1525 1527 1528 1530 1532 1532 1531 1531 1533 1535 1537 1540 1542 1543 1544 1545 1544 1544 1543
1488 1487 1487 1484 1485 1490 1495 1489 1487 1492 1495 1494 1495 1496 1498 1499 1500 1501 1503 1505 1506 1508 1509 1511 1512 1515 1517 1518 1517 1516 1519 1521 1524 1526 1527 1528 1529 1529 1529 1530 1531 1533 1535 1537 1539 1539 1539 1540 1540
1477 1481 1475 1478 1484 1486 1487 1490 1486 1492 1493 1493 1493 1494 1495 1496 1497 1499 1500 1501 1502 1504 1505 1506 1508 1510 1512 1514 1515 1512 1513 1515 1518 1520 1521 1521 1522 1523 1523 1525 1527 1529 1529 1529 1531 1534 1534 1535 1536
1469 1473 1472 1475 1484 1487 1487 1485 1485 1488 1490 1490 1491 1491 1492 1492 1494 1495 1495 1496 1497 1498 1499 1500 1502 1504 1506 1507 1509 1507 1506 1508 1511 1513 1515 1515 1516 1517 1518 1519 1522 1523 1523 1523 1526 1528 1529 1529 1532
1474 1470 1475 1480 1484 1489 1481 1485 1484 1486 1485 1486 1486 1487 1488 1489 1491 1492 1492 1492 1492 1492 1493 1495 1496 1498 1499 1500 1502 1504 1502 1501 1502 1505 1506 1508 1509 1510 1510 1512 1513 1514 1515 1518 1520 1521 1522 1523 1525
1475 1475 1472 1478 1487 1488 1487 1484 1479 1485 1485 1487 1487 1487 1487 1488 1489 1491 1491 1490 1489 1488 1487 1488 1488 1489 1491 1493 1494 1496 1497 1496 1496 1496 1497 1498 1500 1502 1504 1504 1505 1507 1509 1509 1511 1514 1514 1515 1516
1474 1474 1475 1483 1484 1482 1483 1470 1471 1481 1484 1485 1486 1487 1487 1488 1489 1490 1490 1489 1488 1486 1485 1485 1485 1485 1485 1486 1487 1488 1490 1491 1491 1492 1493 1492 1493 1493 1496 1497 1498 1500 1502 1502 1503 1504 1506 1508 1509
1472 1477 1482 1484 1481 1483 1481 1481 1466 1476 1482 1483 1484 1486 1487 1487 1488 1488 1488 1487 1487 1484 1484 1483 1483 1483 1482 1481 1481 1481 1483 1484 1485 1487 1488 1488 1488 1487 1486 1488 1491 1491 1494 1494 1497 1497 1495 1497 1501
1478 1482 1487 1487 1485 1489 1474 1475 1472 1472 1471 1479 1482 1484 1486 1487 1487 1487 1487 1486 1485 1483 1482 1481 1481 1480 1480 1479 1478 1478 1478 1478 1480 1482 1482 1483 1483 1483 1482 1481 1482 1483 1485 1486 1488 1490 1489 1488 1491
1477 1479 1488 1494 1494 1477 1482 1485 1457 1463 1466 1475 1479 1483 1485 1486 1486 1486 1485 1484 1483 1481 1480 1479 1478 1477 1477 1476 1475 1475 1475 1474 1474 1476 1477 1477 1477 1476 1475 1474 1474 1474 1476 1479 1481 1481 1481 1481 1483
1479 1474 1469 1474 1473 1468 1490 1480 1459 1466 1472 1478 1482 1482 1483 1484 1484 1484 1483 1482 1481 1479 1477 1475 1473 1472 1471 1471 1471 1472 1471 1470 1471 1471 1470 1471 1471 1472 1472 1469 1468 1467 1468 1469 1471 1472 1472 1473 1473
1491 1486 1479 1475 1472 1471 1465 1466 1471 1472 1475 1477 1479 1481 1481 1482 1483 1482 1481 1480 1479 1477 1475 1473 1470 1469 1469 1468 1468 1468 1467 1466 1466 1465 1465 1465 1466 1466 1466 1465 1463 1461 1461 1462 1464 1464 1464 1466 1466
1478 1479 1487 1482 1479 1468 1458 1455 1451 1469 1471 1475 1477 1479 1480 1481 1481 1480 1479 1479 1477 1476 1474 1471 1469 1469 1468 1466 1465 1464 1463 1463 1462 1461 1460 1460 1460 1460 1460 1461 1459 1457 1455 1455 1456 1457 1458 1459 1460
1479 1476 1477 1474 1474 1462 1451 1451 1457 1461 1467 1472 1475 1477 1478 1479 1479 1478 1477 1476 1475 1475 1473 1469 1468 1467 1466 1465 1463 1462 1461 1460 1459 1458 1457 1456 1455 1454 1453 1453 1452 1451 1450 1449 1449 1450 1452 1453 1453
1470 1466 1465 1468 1476 1477 1475 1459 1458 1461 1466 1471 1474 1475 1477 1477 1477 1475 1475 1474 1474 1473 1471 1469 1468 1466 1465 1463 1461 1459 1457 1456 1455 1453 1452 1451 1450 1449 1448 1447 1446 1445 1445 1444 1444 1445 1446 1447 1448